COSMOS 2529 (757) (43687 NORAD) Tracking and Keplerian Element Data

This shows tracking and keplerian element data for the satellite.

Feedback or suggestion? Click here.




ElementValue
Catalog43687
NameCOSMOS 2529 (757)
Epoch Orbit535
Epoch Day194.33661407
Epoch Year2019
RAAN278.8569
Inclination64.698
Eccentricity0.0010038
Argument of Perigee264.704
Mean Anonmoly355.4384
Mean Motion2.13102028
Decay Rate-2.2E-07
L11 43687U 18086A 19194.33661407 -.00000022 00000-0 00000+0 0 9999
L22 43687 64.6980 278.8569 0010038 264.7040 355.4384 2.13102028 5357

Live tracking and technical data element details for COSMOS 2529 (757) (NORAD 43687). COSMOS 2529 (757) can be tracked NOW for your location showing map with azimuth and elevation plus other details from your city location.

Track the satellite on the map from your city or location and see movement details for azimuth, elevation, latitude, longitude, range, height, and movement on the map or in text.







IsCatalogInMostPopularTable: catalog: 43687, numindb: 153
Update: records affected: 1



GetName: 43687 COSMOS 2529 (757)

Hit Count: updated at: Mon, 15 Jul 2019 21:55:07 GMT